Time,TemperatureF,DewpointF,PressureIn,WindDirection,WindDirectionDegrees,WindSpeedMPH,WindSpeedGustMPH,Humidity,HourlyPrecipIn,Conditions,Clouds,dailyrainin,SoftwareType,DateUTC
2013-12-06 00:01:00,54.1,48.1,0.00,ESE,121,2.7,4.0,80,0.00,,,0.00,VWS V13.01,2013-12-06 05:01:00,
2013-12-06 00:02:00,54.1,48.1,0.00,SSE,164,5.8,5.8,80,0.00,,,0.00,VWS V13.01,2013-12-06 05:02:00,
2013-12-06 00:03:00,54.1,48.1,0.00,SE,138,5.8,5.8,80,0.00,,,0.00,VWS V13.01,2013-12-06 05:03:00,
2013-12-06 00:05:00,54.1,48.1,0.00,SE,138,4.9,4.9,80,0.00,,,0.00,VWS V13.01,2013-12-06 05:05:00,
2013-12-06 00:10:00,54.1,48.1,0.00,SSE,149,3.1,3.1,80,0.00,,,0.00,VWS V13.01,2013-12-06 05:10:00,
2013-12-06 00:16:00,54.0,47.9,0.00,ESE,107,3.1,3.1,80,0.00,,,0.00,VWS V13.01,2013-12-06 05:16:00,
2013-12-06 00:21:00,54.0,47.9,0.00,East,98,3.1,4.0,80,0.00,,,0.00,VWS V13.01,2013-12-06 05:21:00,
2013-12-06 00:26:00,53.8,47.8,0.00,SE,130,3.1,3.1,80,0.00,,,0.00,VWS V13.01,2013-12-06 05:26:00,
2013-12-06 00:31:00,53.8,47.8,0.00,ESE,105,3.1,4.0,80,0.00,,,0.00,VWS V13.01,2013-12-06 05:31:00,
2013-12-06 00:36:00,53.8,47.8,0.00,ESE,102,0.0,2.7,80,0.00,,,0.00,VWS V13.01,2013-12-06 05:36:00,
2013-12-06 00:41:00,53.6,47.6,0.00,SE,138,0.0,0.0,80,0.00,,,0.00,VWS V13.01,2013-12-06 05:41:00,
2013-12-06 00:46:00,53.8,48.1,0.00,ESE,102,2.7,4.0,81,0.00,,,0.00,VWS V13.01,2013-12-06 05:46:00,
2013-12-06 00:51:00,53.8,48.1,0.00,ESE,103,3.1,3.6,81,0.00,,,0.00,VWS V13.01,2013-12-06 05:51:00,
2013-12-06 00:56:00,53.8,48.1,0.00,East,91,5.8,5.8,81,0.00,,,0.00,VWS V13.01,2013-12-06 05:56:00,
2013-12-06 01:01:00,53.8,48.4,0.00,ESE,104,4.9,5.8,82,0.00,,,0.00,VWS V13.01,2013-12-06 06:01:00,
2013-12-06 01:06:00,53.8,48.4,0.00,ESE,116,3.6,4.0,82,0.00,,,0.00,VWS V13.01,2013-12-06 06:06:00,
2013-12-06 01:11:00,53.8,48.4,0.00,ESE,117,4.9,4.9,82,0.00,,,0.00,VWS V13.01,2013-12-06 06:11:00,
2013-12-06 01:16:00,53.8,48.8,0.00,ESE,113,4.0,4.5,83,0.00,,,0.00,VWS V13.01,2013-12-06 06:16:00,
2013-12-06 01:21:00,53.6,48.6,0.00,SE,130,2.7,5.4,83,0.00,,,0.00,VWS V13.01,2013-12-06 06:21:00,
2013-12-06 01:26:00,53.6,48.6,0.00,SE,124,3.6,5.4,83,0.00,,,0.00,VWS V13.01,2013-12-06 06:26:00,
2013-12-06 01:31:00,53.6,48.9,0.00,ESE,102,3.1,4.0,84,0.00,,,0.00,VWS V13.01,2013-12-06 06:31:00,
2013-12-06 01:36:00,53.6,48.9,0.00,SE,127,3.6,5.4,84,0.00,,,0.00,VWS V13.01,2013-12-06 06:36:00,
2013-12-06 01:42:00,53.6,48.9,0.00,ESE,116,4.9,4.9,84,0.00,,,0.00,VWS V13.01,2013-12-06 06:42:00,
2013-12-06 01:47:00,53.6,48.9,0.00,SE,129,3.6,3.6,84,0.00,,,0.00,VWS V13.01,2013-12-06 06:47:00,
2013-12-06 01:52:00,53.6,48.9,0.00,ESE,112,3.6,3.6,84,0.00,,,0.00,VWS V13.01,2013-12-06 06:52:00,
2013-12-06 01:57:00,53.6,49.2,0.00,ESE,112,2.7,2.7,85,0.00,,,0.00,VWS V13.01,2013-12-06 06:57:00,
2013-12-06 02:02:00,53.6,49.2,0.00,SE,125,4.0,4.0,85,0.00,,,0.00,VWS V13.01,2013-12-06 07:02:00,
2013-12-06 02:07:00,53.6,49.2,0.00,ESE,115,4.5,4.5,85,0.00,,,0.00,VWS V13.01,2013-12-06 07:07:00,
2013-12-06 02:12:00,53.6,49.2,0.00,SSE,166,3.6,6.3,85,0.00,,,0.00,VWS V13.01,2013-12-06 07:12:00,
2013-12-06 02:17:00,53.8,49.7,0.00,SE,146,0.0,0.0,86,0.00,,,0.00,VWS V13.01,2013-12-06 07:17:00,
2013-12-06 02:22:00,53.8,49.7,0.00,SW,214,2.2,5.4,86,0.00,,,0.00,VWS V13.01,2013-12-06 07:22:00,
2013-12-06 02:27:00,53.8,49.7,0.00,SE,124,0.0,0.0,86,0.00,,,0.00,VWS V13.01,2013-12-06 07:27:00,
2013-12-06 02:32:00,53.8,49.7,0.00,SSW,208,0.0,0.0,86,0.00,,,0.00,VWS V13.01,2013-12-06 07:32:00,
2013-12-06 02:37:00,53.8,49.7,0.00,SSW,208,0.0,0.0,86,0.00,,,0.00,VWS V13.01,2013-12-06 07:37:00,
2013-12-06 02:42:00,53.8,49.7,0.00,SSW,208,0.0,0.0,86,0.00,,,0.00,VWS V13.01,2013-12-06 07:42:00,
2013-12-06 02:47:00,53.8,49.7,0.00,SSW,208,0.0,0.0,86,0.00,,,0.00,VWS V13.01,2013-12-06 07:47:00,
2013-12-06 02:52:00,53.8,49.7,0.00,SSW,208,0.0,0.0,86,0.00,,,0.00,VWS V13.01,2013-12-06 07:52:00,
2013-12-06 02:57:00,53.8,50.0,0.00,SSW,208,0.0,0.0,87,0.00,,,0.00,VWS V13.01,2013-12-06 07:57:00,
2013-12-06 03:02:00,54.0,50.2,0.00,WNW,284,3.1,3.6,87,0.00,,,0.00,VWS V13.01,2013-12-06 08:02:00,
2013-12-06 03:07:00,54.0,50.2,0.00,NW,304,3.6,3.6,87,0.00,,,0.00,VWS V13.01,2013-12-06 08:07:00,
2013-12-06 03:12:00,54.0,50.2,0.00,NW,305,4.9,4.9,87,0.00,,,0.00,VWS V13.01,2013-12-06 08:12:00,
2013-12-06 03:18:00,53.6,49.8,0.00,NE,35,5.8,8.1,87,0.00,,,0.00,VWS V13.01,2013-12-06 08:18:00,
2013-12-06 03:23:00,52.2,47.8,0.00,East,101,5.8,5.8,85,0.00,,,0.00,VWS V13.01,2013-12-06 08:23:00,
2013-12-06 03:28:00,49.8,45.2,0.00,North,0,4.9,4.9,84,0.00,,,0.00,VWS V13.01,2013-12-06 08:28:00,
2013-12-06 03:33:00,48.7,43.8,0.00,ENE,77,5.8,5.8,83,0.00,,,0.00,VWS V13.01,2013-12-06 08:33:00,
2013-12-06 03:38:00,48.6,43.6,0.00,NE,41,6.3,6.3,83,0.00,,,0.00,VWS V13.01,2013-12-06 08:38:00,
2013-12-06 03:43:00,48.0,43.1,0.00,NE,46,7.6,8.7,83,0.00,,,0.00,VWS V13.01,2013-12-06 08:43:00,
2013-12-06 03:48:00,47.3,42.4,0.00,North,10,6.7,6.7,83,0.00,,,0.00,VWS V13.01,2013-12-06 08:48:00,
2013-12-06 03:53:00,47.1,42.2,0.00,NE,54,6.3,6.3,83,0.00,,,0.00,VWS V13.01,2013-12-06 08:53:00,
2013-12-06 03:58:00,46.8,41.9,0.00,ESE,110,4.9,6.3,83,0.00,,,0.00,VWS V13.01,2013-12-06 08:58:00,
2013-12-06 04:03:00,46.6,41.7,0.00,ENE,61,8.1,8.1,83,0.00,,,0.00,VWS V13.01,2013-12-06 09:03:00,
2013-12-06 04:08:00,46.2,41.3,0.00,ESE,105,2.7,5.4,83,0.00,,,0.00,VWS V13.01,2013-12-06 09:08:00,
2013-12-06 04:13:00,46.0,41.2,0.00,East,98,2.7,3.6,83,0.00,,,0.00,VWS V13.01,2013-12-06 09:13:00,
2013-12-06 04:18:00,45.9,41.0,0.00,SE,135,3.1,3.1,83,0.00,,,0.00,VWS V13.01,2013-12-06 09:18:00,
2013-12-06 04:23:00,45.7,40.8,0.00,East,90,5.4,6.7,83,0.04,,,0.04,VWS V13.01,2013-12-06 09:23:00,
2013-12-06 04:28:00,45.5,40.7,0.00,ESE,113,4.9,10.1,83,0.04,,,0.04,VWS V13.01,2013-12-06 09:28:00,
2013-12-06 04:33:00,45.1,40.3,0.00,SW,227,0.0,0.0,83,0.04,,,0.04,VWS V13.01,2013-12-06 09:33:00,
2013-12-06 04:39:00,44.8,39.6,0.00,NNE,17,11.0,11.0,82,0.04,,,0.04,VWS V13.01,2013-12-06 09:39:00,
2013-12-06 04:44:00,44.6,39.5,0.00,NE,53,3.1,6.3,82,0.04,,,0.04,VWS V13.01,2013-12-06 09:44:00,
2013-12-06 04:49:00,44.4,39.0,0.00,NW,312,10.1,10.1,81,0.04,,,0.04,VWS V13.01,2013-12-06 09:49:00,
2013-12-06 04:54:00,44.1,38.3,0.00,SSE,157,4.0,4.0,80,0.04,,,0.04,VWS V13.01,2013-12-06 09:54:00,
2013-12-06 04:59:00,44.1,37.3,0.00,WNW,292,4.5,6.3,77,0.08,,,0.08,VWS V13.01,2013-12-06 09:59:00,
2013-12-06 05:04:00,43.9,36.8,0.00,ENE,74,6.3,7.6,76,0.08,,,0.08,VWS V13.01,2013-12-06 10:04:00,
2013-12-06 05:09:00,43.7,36.3,0.00,North,1,0.0,2.2,75,0.08,,,0.08,VWS V13.01,2013-12-06 10:09:00,
2013-12-06 05:14:00,43.3,35.3,0.00,NE,45,3.6,3.6,73,0.08,,,0.08,VWS V13.01,2013-12-06 10:14:00,
2013-12-06 05:19:00,43.2,34.4,0.00,NNE,15,5.8,5.8,71,0.12,,,0.12,VWS V13.01,2013-12-06 10:19:00,
2013-12-06 05:24:00,42.8,33.3,0.00,South,177,3.6,3.6,69,0.08,,,0.12,VWS V13.01,2013-12-06 10:24:00,
2013-12-06 05:29:00,42.6,32.8,0.00,SE,126,3.1,5.8,68,0.08,,,0.12,VWS V13.01,2013-12-06 10:29:00,
2013-12-06 05:34:00,42.4,32.6,0.00,ESE,103,4.0,6.3,68,0.08,,,0.12,VWS V13.01,2013-12-06 10:34:00,
2013-12-06 05:39:00,42.3,31.7,0.00,ESE,111,4.0,4.9,66,0.08,,,0.12,VWS V13.01,2013-12-06 10:39:00,
2013-12-06 05:44:00,42.1,31.6,0.00,East,83,10.1,10.1,66,0.08,,,0.12,VWS V13.01,2013-12-06 10:44:00,
2013-12-06 05:49:00,41.9,31.0,0.00,NE,49,0.0,3.6,65,0.08,,,0.12,VWS V13.01,2013-12-06 10:49:00,
2013-12-06 05:54:00,41.7,30.1,0.00,ENE,74,3.1,4.9,63,0.08,,,0.12,VWS V13.01,2013-12-06 10:54:00,
2013-12-06 05:59:00,41.5,29.9,0.00,NW,322,4.5,5.4,63,0.04,,,0.12,VWS V13.01,2013-12-06 10:59:00,
2013-12-06 06:04:00,41.4,29.7,0.00,NE,54,0.0,2.2,63,0.04,,,0.12,VWS V13.01,2013-12-06 11:04:00,
2013-12-06 06:09:00,41.2,29.9,0.00,ENE,67,3.1,5.8,64,0.04,,,0.12,VWS V13.01,2013-12-06 11:09:00,
2013-12-06 06:14:00,41.0,30.1,0.00,NNE,17,8.1,8.1,65,0.04,,,0.12,VWS V13.01,2013-12-06 11:14:00,
2013-12-06 06:19:00,41.0,30.1,0.00,ESE,117,0.0,2.2,65,0.00,,,0.12,VWS V13.01,2013-12-06 11:19:00,
2013-12-06 06:25:00,40.6,30.2,0.00,SE,146,5.4,5.4,66,0.00,,,0.12,VWS V13.01,2013-12-06 11:25:00,
2013-12-06 06:30:00,40.5,30.0,0.00,NNE,26,4.9,6.3,66,0.00,,,0.12,VWS V13.01,2013-12-06 11:30:00,
2013-12-06 06:35:00,40.5,30.4,0.00,NE,39,3.1,4.0,67,0.00,,,0.12,VWS V13.01,2013-12-06 11:35:00,
2013-12-06 06:40:00,40.3,30.2,0.00,NNW,331,3.6,5.4,67,0.00,,,0.12,VWS V13.01,2013-12-06 11:40:00,
2013-12-06 06:45:00,40.3,30.2,0.00,ENE,66,3.6,4.9,67,0.00,,,0.12,VWS V13.01,2013-12-06 11:45:00,
2013-12-06 06:50:00,40.3,30.2,0.00,ENE,68,2.7,3.6,67,0.00,,,0.12,VWS V13.01,2013-12-06 11:50:00,
2013-12-06 06:55:00,40.3,30.2,0.00,NE,54,10.1,10.1,67,0.00,,,0.12,VWS V13.01,2013-12-06 11:55:00,
2013-12-06 07:00:00,40.1,30.0,0.00,NE,50,3.6,6.3,67,0.00,,,0.12,VWS V13.01,2013-12-06 12:00:00,
2013-12-06 07:05:00,40.1,30.0,0.00,ENE,68,4.5,4.5,67,0.00,,,0.12,VWS V13.01,2013-12-06 12:05:00,
2013-12-06 07:10:00,40.1,30.0,0.00,ESE,112,4.0,5.8,67,0.00,,,0.12,VWS V13.01,2013-12-06 12:10:00,
2013-12-06 07:15:00,39.9,29.9,0.00,NE,46,3.6,8.7,67,0.00,,,0.12,VWS V13.01,2013-12-06 12:15:00,
2013-12-06 07:20:00,39.9,29.9,0.00,NE,42,5.4,6.3,67,0.00,,,0.12,VWS V13.01,2013-12-06 12:20:00,
2013-12-06 07:25:00,39.9,29.5,0.00,ESE,122,4.0,5.8,66,0.00,,,0.12,VWS V13.01,2013-12-06 12:25:00,
2013-12-06 07:30:00,39.9,29.1,0.00,East,93,0.0,3.6,65,0.00,,,0.12,VWS V13.01,2013-12-06 12:30:00,
2013-12-06 07:35:00,39.9,29.1,0.00,NE,37,5.4,5.4,65,0.00,,,0.12,VWS V13.01,2013-12-06 12:35:00,
2013-12-06 07:40:00,39.9,29.1,0.00,NNE,27,4.0,4.0,65,0.00,,,0.12,VWS V13.01,2013-12-06 12:40:00,
2013-12-06 07:45:00,39.9,29.1,0.00,North,350,8.7,8.7,65,0.00,,,0.12,VWS V13.01,2013-12-06 12:45:00,
2013-12-06 07:50:00,39.7,29.0,0.00,ENE,62,2.7,5.8,65,0.00,,,0.12,VWS V13.01,2013-12-06 12:50:00,
2013-12-06 07:56:00,39.7,29.0,0.00,NE,54,4.0,7.6,65,0.00,,,0.12,VWS V13.01,2013-12-06 12:56:00,
2013-12-06 08:01:00,39.7,29.0,0.00,North,357,3.6,16.3,65,0.00,,,0.12,VWS V13.01,2013-12-06 13:01:00,
2013-12-06 08:06:00,39.7,28.6,0.00,ESE,103,4.0,4.0,64,0.00,,,0.12,VWS V13.01,2013-12-06 13:06:00,
2013-12-06 08:11:00,39.7,28.2,0.00,ESE,104,5.4,8.3,63,0.00,,,0.12,VWS V13.01,2013-12-06 13:11:00,
2013-12-06 08:16:00,39.7,28.2,0.00,NNE,18,8.7,8.7,63,0.00,,,0.12,VWS V13.01,2013-12-06 13:16:00,
2013-12-06 08:21:00,39.7,27.8,0.00,ESE,112,3.6,3.6,62,0.04,,,0.16,VWS V13.01,2013-12-06 13:21:00,
2013-12-06 08:26:00,39.7,28.2,0.00,SE,136,0.0,4.0,63,0.04,,,0.16,VWS V13.01,2013-12-06 13:26:00,
2013-12-06 08:31:00,39.7,27.8,0.00,ENE,74,5.4,12.3,62,0.04,,,0.16,VWS V13.01,2013-12-06 13:31:00,
2013-12-06 08:36:00,39.7,27.8,0.00,ENE,76,7.6,11.4,62,0.04,,,0.16,VWS V13.01,2013-12-06 13:36:00,
2013-12-06 08:41:00,39.7,27.0,0.00,East,85,5.4,11.0,60,0.04,,,0.16,VWS V13.01,2013-12-06 13:41:00,
2013-12-06 08:46:00,39.7,26.6,0.00,NE,35,2.7,3.6,59,0.04,,,0.16,VWS V13.01,2013-12-06 13:46:00,
2013-12-06 08:51:00,39.7,26.2,0.00,ESE,102,3.6,4.0,58,0.04,,,0.16,VWS V13.01,2013-12-06 13:51:00,
2013-12-06 08:56:00,39.7,25.8,0.00,East,85,0.0,2.7,57,0.04,,,0.16,VWS V13.01,2013-12-06 13:56:00,
2013-12-06 09:01:00,39.7,25.8,0.00,NNE,25,3.6,3.6,57,0.04,,,0.16,VWS V13.01,2013-12-06 14:01:00,
2013-12-06 09:06:00,39.7,25.8,0.00,ESE,111,3.1,4.0,57,0.04,,,0.16,VWS V13.01,2013-12-06 14:06:00,
2013-12-06 09:12:00,39.7,25.8,0.00,ENE,61,2.7,3.6,57,0.04,,,0.16,VWS V13.01,2013-12-06 14:12:00,
2013-12-06 09:17:00,39.7,26.2,0.00,ENE,75,2.2,2.2,58,0.04,,,0.16,VWS V13.01,2013-12-06 14:17:00,
2013-12-06 09:22:00,39.7,26.2,0.00,East,84,3.6,3.6,58,0.00,,,0.16,VWS V13.01,2013-12-06 14:22:00,
2013-12-06 09:27:00,39.9,26.4,0.00,NNW,343,2.7,2.7,58,0.00,,,0.16,VWS V13.01,2013-12-06 14:27:00,
2013-12-06 09:32:00,39.9,26.4,0.00,NNW,331,3.6,5.4,58,0.00,,,0.16,VWS V13.01,2013-12-06 14:32:00,
2013-12-06 09:37:00,39.9,25.9,0.00,West,270,2.7,2.7,57,0.00,,,0.16,VWS V13.01,2013-12-06 14:37:00,
2013-12-06 09:42:00,39.9,25.1,0.00,North,357,5.8,6.7,55,0.00,,,0.16,VWS V13.01,2013-12-06 14:42:00,
2013-12-06 09:47:00,39.9,24.6,0.00,ENE,77,2.7,3.1,54,0.00,,,0.16,VWS V13.01,2013-12-06 14:47:00,
2013-12-06 09:52:00,39.9,24.2,0.00,WNW,302,5.8,5.8,53,0.00,,,0.16,VWS V13.01,2013-12-06 14:52:00,
2013-12-06 09:57:00,39.9,23.7,0.00,NW,319,2.7,5.8,52,0.00,,,0.16,VWS V13.01,2013-12-06 14:57:00,
2013-12-06 10:02:00,40.1,23.9,0.00,North,357,3.6,4.0,52,0.00,,,0.16,VWS V13.01,2013-12-06 15:02:00,
2013-12-06 10:07:00,40.3,24.1,0.00,North,357,0.0,5.8,52,0.00,,,0.16,VWS V13.01,2013-12-06 15:07:00,
2013-12-06 10:12:00,40.3,24.1,0.00,North,357,3.1,4.0,52,0.00,,,0.16,VWS V13.01,2013-12-06 15:12:00,
2013-12-06 10:17:00,40.3,24.5,0.00,ESE,117,0.0,3.1,53,0.00,,,0.16,VWS V13.01,2013-12-06 15:17:00,
2013-12-06 10:22:00,40.5,24.7,0.00,ENE,63,0.0,2.7,53,0.00,,,0.16,VWS V13.01,2013-12-06 15:22:00,
2013-12-06 10:27:00,40.5,24.2,0.00,NE,47,0.0,5.4,52,0.00,,,0.16,VWS V13.01,2013-12-06 15:27:00,
2013-12-06 10:32:00,40.5,24.2,0.00,NW,320,0.0,3.1,52,0.00,,,0.16,VWS V13.01,2013-12-06 15:32:00,
2013-12-06 10:37:00,40.5,23.8,0.00,North,7,3.1,3.1,51,0.00,,,0.16,VWS V13.01,2013-12-06 15:37:00,
2013-12-06 10:42:00,40.5,23.8,0.00,NE,35,0.0,0.0,51,0.00,,,0.16,VWS V13.01,2013-12-06 15:42:00,
2013-12-06 10:47:00,40.5,23.3,0.00,SE,138,2.2,5.4,50,0.00,,,0.16,VWS V13.01,2013-12-06 15:47:00,
2013-12-06 10:53:00,40.5,23.3,0.00,NNE,27,5.8,5.8,50,0.00,,,0.16,VWS V13.01,2013-12-06 15:53:00,
2013-12-06 10:58:00,40.5,23.3,0.00,ESE,117,5.4,5.4,50,0.00,,,0.16,VWS V13.01,2013-12-06 15:58:00,
2013-12-06 11:03:00,40.5,23.3,0.00,East,89,2.7,2.7,50,0.00,,,0.16,VWS V13.01,2013-12-06 16:03:00,
2013-12-06 11:08:00,40.6,23.5,0.00,ENE,69,2.7,4.0,50,0.00,,,0.16,VWS V13.01,2013-12-06 16:08:00,
2013-12-06 11:13:00,40.5,23.3,0.00,North,7,4.9,5.8,50,0.00,,,0.16,VWS V13.01,2013-12-06 16:13:00,
2013-12-06 11:18:00,40.5,22.8,0.00,NE,41,3.1,4.0,49,0.00,,,0.16,VWS V13.01,2013-12-06 16:18:00,
2013-12-06 11:23:00,40.6,22.5,0.00,WNW,297,0.0,4.0,48,0.00,,,0.16,VWS V13.01,2013-12-06 16:23:00,
2013-12-06 11:28:00,40.8,22.2,0.00,NNE,25,7.2,7.2,47,0.00,,,0.16,VWS V13.01,2013-12-06 16:28:00,
2013-12-06 11:33:00,41.0,21.8,0.00,South,189,0.0,3.1,46,0.00,,,0.16,VWS V13.01,2013-12-06 16:33:00,
2013-12-06 11:38:00,41.0,20.8,0.00,ESE,108,3.1,6.3,44,0.00,,,0.16,VWS V13.01,2013-12-06 16:38:00,
2013-12-06 11:43:00,41.2,20.9,0.00,SSW,193,3.1,6.3,44,0.00,,,0.16,VWS V13.01,2013-12-06 16:43:00,
2013-12-06 11:48:00,41.2,19.9,0.00,North,357,5.4,10.5,42,0.00,,,0.16,VWS V13.01,2013-12-06 16:48:00,
2013-12-06 11:53:00,41.2,19.9,0.00,NE,55,3.1,7.6,42,0.00,,,0.16,VWS V13.01,2013-12-06 16:53:00,
2013-12-06 11:58:00,41.2,20.4,0.00,NNE,16,3.6,5.4,43,0.00,,,0.16,VWS V13.01,2013-12-06 16:58:00,
2013-12-06 12:03:00,41.2,19.9,0.00,NNW,343,4.9,8.3,42,0.00,,,0.16,VWS V13.01,2013-12-06 17:03:00,
2013-12-06 12:09:00,41.2,19.9,0.00,ENE,72,3.6,5.4,42,0.00,,,0.16,VWS V13.01,2013-12-06 17:09:00,
2013-12-06 12:14:00,41.2,19.9,0.00,WSW,240,2.7,3.1,42,0.00,,,0.16,VWS V13.01,2013-12-06 17:14:00,
2013-12-06 12:19:00,41.2,20.4,0.00,SSE,157,2.7,3.6,43,0.00,,,0.16,VWS V13.01,2013-12-06 17:19:00,
2013-12-06 12:24:00,41.2,19.9,0.00,NNE,16,3.6,6.3,42,0.00,,,0.16,VWS V13.01,2013-12-06 17:24:00,
2013-12-06 12:29:00,41.2,20.4,0.00,NNE,31,3.1,3.1,43,0.00,,,0.16,VWS V13.01,2013-12-06 17:29:00,
2013-12-06 12:34:00,41.2,19.3,0.00,NNE,13,4.5,8.1,41,0.00,,,0.16,VWS V13.01,2013-12-06 17:34:00,
2013-12-06 12:39:00,41.2,19.3,0.00,North,0,3.6,6.3,41,0.00,,,0.16,VWS V13.01,2013-12-06 17:39:00,
2013-12-06 12:44:00,41.2,18.7,0.00,NNW,344,5.8,5.8,40,0.00,,,0.16,VWS V13.01,2013-12-06 17:44:00,
2013-12-06 12:49:00,41.2,19.3,0.00,NNW,339,4.0,4.0,41,0.00,,,0.16,VWS V13.01,2013-12-06 17:49:00,
2013-12-06 12:54:00,41.4,18.9,0.00,NE,37,2.7,5.8,40,0.00,,,0.16,VWS V13.01,2013-12-06 17:54:00,
2013-12-06 12:59:00,41.5,19.0,0.00,NE,35,7.6,7.6,40,0.00,,,0.16,VWS V13.01,2013-12-06 17:59:00,
2013-12-06 13:04:00,41.5,18.4,0.00,NW,307,0.0,4.0,39,0.00,,,0.16,VWS V13.01,2013-12-06 18:04:00,
2013-12-06 13:09:00,41.7,18.6,0.00,WSW,252,0.0,4.0,39,0.00,,,0.16,VWS V13.01,2013-12-06 18:09:00,
2013-12-06 13:14:00,41.7,18.6,0.00,NE,35,3.1,5.4,39,0.00,,,0.16,VWS V13.01,2013-12-06 18:14:00,
2013-12-06 13:19:00,41.9,18.8,0.00,NNW,330,2.7,3.6,39,0.00,,,0.16,VWS V13.01,2013-12-06 18:19:00,
2013-12-06 13:25:00,42.1,18.9,0.00,ESE,111,2.7,2.7,39,0.00,,,0.16,VWS V13.01,2013-12-06 18:25:00,
2013-12-06 13:30:00,42.1,17.1,0.00,NNE,12,4.0,4.9,36,0.00,,,0.16,VWS V13.01,2013-12-06 18:30:00,
2013-12-06 13:35:00,42.1,18.3,0.00,ESE,117,3.1,3.1,38,0.00,,,0.16,VWS V13.01,2013-12-06 18:35:00,
2013-12-06 13:40:00,42.3,17.9,0.00,NNE,16,4.9,4.9,37,0.00,,,0.16,VWS V13.01,2013-12-06 18:40:00,
2013-12-06 13:45:00,42.3,16.6,0.00,East,86,0.0,0.0,35,0.00,,,0.16,VWS V13.01,2013-12-06 18:45:00,
2013-12-06 13:50:00,41.9,14.2,0.00,NNE,25,5.8,7.2,32,0.00,,,0.16,VWS V13.01,2013-12-06 18:50:00,
2013-12-06 13:55:00,41.9,13.5,0.00,North,5,4.0,5.4,31,0.00,,,0.16,VWS V13.01,2013-12-06 18:55:00,
2013-12-06 14:00:00,41.9,14.2,0.00,WSW,244,0.0,2.2,32,0.00,,,0.16,VWS V13.01,2013-12-06 19:00:00,
2013-12-06 14:05:00,42.1,14.4,0.00,WNW,290,3.6,3.6,32,0.00,,,0.16,VWS V13.01,2013-12-06 19:05:00,
2013-12-06 14:10:00,42.1,14.4,0.00,WSW,238,5.8,5.8,32,0.00,,,0.16,VWS V13.01,2013-12-06 19:10:00,
2013-12-06 14:15:00,42.1,13.6,0.00,NNE,19,3.1,6.3,31,0.00,,,0.16,VWS V13.01,2013-12-06 19:15:00,
2013-12-06 14:20:00,42.1,13.6,0.00,NE,44,4.0,6.3,31,0.00,,,0.16,VWS V13.01,2013-12-06 19:20:00,
2013-12-06 14:25:00,41.9,13.5,0.00,North,1,7.6,7.6,31,0.00,,,0.16,VWS V13.01,2013-12-06 19:25:00,
2013-12-06 14:31:00,41.9,14.2,0.00,NW,310,3.1,3.1,32,0.00,,,0.16,VWS V13.01,2013-12-06 19:31:00,
2013-12-06 14:36:00,41.9,14.2,0.00,NE,50,8.3,8.3,32,0.00,,,0.16,VWS V13.01,2013-12-06 19:36:00,
2013-12-06 14:41:00,41.9,14.2,0.00,ENE,60,4.9,8.1,32,0.00,,,0.16,VWS V13.01,2013-12-06 19:41:00,
2013-12-06 14:46:00,41.7,12.6,0.00,North,10,3.6,6.3,30,0.00,,,0.16,VWS V13.01,2013-12-06 19:46:00,
2013-12-06 14:51:00,41.7,12.6,0.00,ENE,57,3.1,5.4,30,0.00,,,0.16,VWS V13.01,2013-12-06 19:51:00,
2013-12-06 14:56:00,41.5,12.4,0.00,South,188,0.0,7.6,30,0.00,,,0.16,VWS V13.01,2013-12-06 19:56:00,
2013-12-06 15:01:00,41.5,12.4,0.00,North,0,3.1,4.0,30,0.00,,,0.16,VWS V13.01,2013-12-06 20:01:00,
2013-12-06 15:06:00,41.4,11.5,0.00,East,85,2.7,3.6,29,0.00,,,0.16,VWS V13.01,2013-12-06 20:06:00,
2013-12-06 15:11:00,41.4,11.5,0.00,North,11,4.0,4.0,29,0.00,,,0.16,VWS V13.01,2013-12-06 20:11:00,
2013-12-06 15:16:00,41.4,12.3,0.00,NNW,344,0.0,3.6,30,0.00,,,0.16,VWS V13.01,2013-12-06 20:16:00,
2013-12-06 15:21:00,41.2,12.1,0.00,North,6,0.0,0.0,30,0.00,,,0.16,VWS V13.01,2013-12-06 20:21:00,
2013-12-06 15:26:00,41.2,12.1,0.00,NNE,29,2.7,4.5,30,0.00,,,0.16,VWS V13.01,2013-12-06 20:26:00,
2013-12-06 15:31:00,41.2,12.1,0.00,East,79,5.4,7.6,30,0.00,,,0.16,VWS V13.01,2013-12-06 20:31:00,
2013-12-06 15:36:00,41.0,12.0,0.00,NNE,16,5.4,8.7,30,0.00,,,0.16,VWS V13.01,2013-12-06 20:36:00,
2013-12-06 15:41:00,40.8,11.8,0.00,WNW,295,3.6,5.4,30,0.00,,,0.16,VWS V13.01,2013-12-06 20:41:00,
2013-12-06 15:46:00,40.6,12.4,0.00,West,280,3.6,3.6,31,0.00,,,0.16,VWS V13.01,2013-12-06 20:46:00,
2013-12-06 15:51:00,40.6,12.4,0.00,ENE,59,0.0,3.6,31,0.00,,,0.16,VWS V13.01,2013-12-06 20:51:00,
2013-12-06 15:56:00,40.5,12.9,0.00,East,86,6.3,6.3,32,0.00,,,0.16,VWS V13.01,2013-12-06 20:56:00,
2013-12-06 16:01:00,40.3,12.1,0.00,East,79,5.4,6.3,31,0.00,,,0.16,VWS V13.01,2013-12-06 21:01:00,
2013-12-06 16:06:00,40.3,12.1,0.00,ENE,74,0.0,4.0,31,0.00,,,0.16,VWS V13.01,2013-12-06 21:06:00,
2013-12-06 16:11:00,40.1,12.6,0.00,ENE,57,5.4,6.3,32,0.00,,,0.16,VWS V13.01,2013-12-06 21:11:00,
2013-12-06 16:16:00,40.1,12.6,0.00,ESE,116,0.0,0.0,32,0.00,,,0.16,VWS V13.01,2013-12-06 21:16:00,
2013-12-06 16:21:00,39.9,14.5,0.00,NE,41,3.6,5.8,35,0.00,,,0.16,VWS V13.01,2013-12-06 21:21:00,
2013-12-06 16:27:00,39.7,15.6,0.00,NNE,16,3.6,3.6,37,0.00,,,0.16,VWS V13.01,2013-12-06 21:27:00,
2013-12-06 16:32:00,39.4,16.5,0.00,NE,42,5.8,5.8,39,0.00,,,0.16,VWS V13.01,2013-12-06 21:32:00,
2013-12-06 16:37:00,39.2,16.3,0.00,ESE,116,4.0,5.4,39,0.00,,,0.16,VWS V13.01,2013-12-06 21:37:00,
2013-12-06 16:42:00,39.2,16.3,0.00,NNW,340,3.6,3.6,39,0.00,,,0.16,VWS V13.01,2013-12-06 21:42:00,
2013-12-06 16:47:00,39.2,16.3,0.00,NE,46,5.8,5.8,39,0.00,,,0.16,VWS V13.01,2013-12-06 21:47:00,
2013-12-06 16:52:00,39.0,16.2,0.00,ENE,75,5.4,5.8,39,0.00,,,0.16,VWS V13.01,2013-12-06 21:52:00,
2013-12-06 16:57:00,39.0,16.2,0.00,NNE,17,2.7,2.7,39,0.00,,,0.16,VWS V13.01,2013-12-06 21:57:00,
2013-12-06 17:02:00,38.8,16.0,0.00,NNW,337,0.0,2.7,39,0.00,,,0.16,VWS V13.01,2013-12-06 22:02:00,
2013-12-06 17:07:00,38.7,15.9,0.00,NE,54,3.6,5.4,39,0.00,,,0.16,VWS V13.01,2013-12-06 22:07:00,
2013-12-06 17:12:00,38.5,16.3,0.00,NE,41,0.0,0.0,40,0.00,,,0.16,VWS V13.01,2013-12-06 22:12:00,
2013-12-06 17:17:00,38.3,16.7,0.00,East,101,3.6,5.8,41,0.00,,,0.16,VWS V13.01,2013-12-06 22:17:00,
2013-12-06 17:22:00,38.1,16.5,0.00,East,96,0.0,0.0,41,0.00,,,0.16,VWS V13.01,2013-12-06 22:22:00,
2013-12-06 17:27:00,37.9,16.9,0.00,ESE,119,2.2,3.6,42,0.00,,,0.16,VWS V13.01,2013-12-06 22:27:00,
2013-12-06 17:32:00,37.6,17.7,0.00,East,93,2.2,3.6,44,0.00,,,0.16,VWS V13.01,2013-12-06 22:32:00,
2013-12-06 17:37:00,37.4,18.5,0.00,NE,42,0.0,0.0,46,0.00,,,0.16,VWS V13.01,2013-12-06 22:37:00,
2013-12-06 17:43:00,37.4,19.0,0.00,NE,52,3.6,5.8,47,0.00,,,0.16,VWS V13.01,2013-12-06 22:43:00,
2013-12-06 17:48:00,37.4,19.5,0.00,North,0,3.1,3.1,48,0.00,,,0.16,VWS V13.01,2013-12-06 22:48:00,
2013-12-06 17:53:00,37.2,19.8,0.00,NE,56,0.0,0.0,49,0.00,,,0.16,VWS V13.01,2013-12-06 22:53:00,
2013-12-06 17:58:00,37.2,19.8,0.00,ESE,123,2.7,2.7,49,0.00,,,0.16,VWS V13.01,2013-12-06 22:58:00,
2013-12-06 18:03:00,37.0,20.1,0.00,North,7,2.2,2.2,50,0.00,,,0.16,VWS V13.01,2013-12-06 23:03:00,
2013-12-06 18:08:00,37.0,20.1,0.00,NNE,22,0.0,0.0,50,0.00,,,0.16,VWS V13.01,2013-12-06 23:08:00,
2013-12-06 18:13:00,36.9,20.0,0.00,West,274,2.7,3.1,50,0.00,,,0.16,VWS V13.01,2013-12-06 23:13:00,
2013-12-06 18:18:00,36.9,20.4,0.00,East,91,2.2,4.0,51,0.00,,,0.16,VWS V13.01,2013-12-06 23:18:00,
2013-12-06 18:23:00,36.9,20.9,0.00,North,4,4.9,4.9,52,0.00,,,0.16,VWS V13.01,2013-12-06 23:23:00,
2013-12-06 18:28:00,36.7,20.7,0.00,NE,55,2.7,2.7,52,0.00,,,0.16,VWS V13.01,2013-12-06 23:28:00,
2013-12-06 18:33:00,36.7,20.7,0.00,North,9,0.0,0.0,52,0.00,,,0.16,VWS V13.01,2013-12-06 23:33:00,
2013-12-06 18:38:00,36.7,20.7,0.00,ENE,59,0.0,0.0,52,0.08,,,0.24,VWS V13.01,2013-12-06 23:38:00,
2013-12-06 18:43:00,36.5,20.6,0.00,NE,36,0.0,0.0,52,0.08,,,0.24,VWS V13.01,2013-12-06 23:43:00,
2013-12-06 18:48:00,36.5,20.6,0.00,NW,305,0.0,3.6,52,0.08,,,0.24,VWS V13.01,2013-12-06 23:48:00,
2013-12-06 18:53:00,36.3,20.8,0.00,WNW,295,0.0,0.0,53,0.08,,,0.24,VWS V13.01,2013-12-06 23:53:00,
2013-12-06 18:58:00,36.3,20.8,0.00,WSW,248,5.4,5.4,53,0.08,,,0.24,VWS V13.01,2013-12-06 23:58:00,
2013-12-06 19:04:00,36.3,21.7,0.00,NNW,345,0.0,3.6,55,0.08,,,0.24,VWS V13.01,2013-12-07 00:04:00,
2013-12-06 19:09:00,36.1,21.5,0.00,ENE,59,0.0,4.0,55,0.08,,,0.24,VWS V13.01,2013-12-07 00:09:00,
2013-12-06 19:14:00,36.1,21.5,0.00,ESE,121,3.1,3.1,55,0.12,,,0.28,VWS V13.01,2013-12-07 00:14:00,
2013-12-06 19:19:00,36.1,22.0,0.00,NW,319,3.1,3.1,56,0.12,,,0.28,VWS V13.01,2013-12-07 00:19:00,
2013-12-06 19:24:00,36.0,21.8,0.00,East,79,0.0,0.0,56,0.12,,,0.28,VWS V13.01,2013-12-07 00:24:00,
2013-12-06 19:29:00,36.0,22.2,0.00,West,278,0.0,0.0,57,0.12,,,0.28,VWS V13.01,2013-12-07 00:29:00,
2013-12-06 19:34:00,35.8,22.0,0.00,NNW,340,2.2,3.6,57,0.12,,,0.28,VWS V13.01,2013-12-07 00:34:00,
2013-12-06 19:39:00,35.8,22.0,0.00,NNE,23,2.2,2.2,57,0.04,,,0.28,VWS V13.01,2013-12-07 00:39:00,
2013-12-06 19:44:00,35.8,22.0,0.00,SE,132,0.0,0.0,57,0.08,,,0.31,VWS V13.01,2013-12-07 00:44:00,
2013-12-06 19:49:00,35.6,21.9,0.00,NNW,343,0.0,0.0,57,0.08,,,0.31,VWS V13.01,2013-12-07 00:49:00,
2013-12-06 19:54:00,35.6,21.9,0.00,ENE,74,0.0,3.1,57,0.08,,,0.31,VWS V13.01,2013-12-07 00:54:00,
2013-12-06 19:59:00,35.6,21.9,0.00,West,275,0.0,0.0,57,0.08,,,0.31,VWS V13.01,2013-12-07 00:59:00,
2013-12-06 20:04:00,35.6,22.7,0.00,West,260,0.0,2.7,59,0.08,,,0.31,VWS V13.01,2013-12-07 01:04:00,
2013-12-06 20:09:00,35.6,23.9,0.00,WNW,285,0.0,0.0,62,0.08,,,0.31,VWS V13.01,2013-12-07 01:09:00,
2013-12-06 20:14:00,35.4,24.1,0.00,West,275,4.0,4.0,63,0.04,,,0.31,VWS V13.01,2013-12-07 01:14:00,
2013-12-06 20:20:00,35.4,24.1,0.00,WNW,296,0.0,0.0,63,0.04,,,0.31,VWS V13.01,2013-12-07 01:20:00,
2013-12-06 20:25:00,35.2,23.9,0.00,NNW,348,0.0,2.7,63,0.04,,,0.31,VWS V13.01,2013-12-07 01:25:00,
2013-12-06 20:30:00,35.2,23.9,0.00,West,268,0.0,0.0,63,0.04,,,0.31,VWS V13.01,2013-12-07 01:30:00,
2013-12-06 20:35:00,35.1,23.8,0.00,NW,307,2.7,2.7,63,0.04,,,0.31,VWS V13.01,2013-12-07 01:35:00,
2013-12-06 20:40:00,34.9,23.6,0.00,SW,233,2.2,2.2,63,0.04,,,0.31,VWS V13.01,2013-12-07 01:40:00,
2013-12-06 20:45:00,34.9,23.6,0.00,NW,326,2.2,3.1,63,0.00,,,0.31,VWS V13.01,2013-12-07 01:45:00,
2013-12-06 20:50:00,34.7,23.4,0.00,NE,34,5.4,5.4,63,0.00,,,0.31,VWS V13.01,2013-12-07 01:50:00,
2013-12-06 20:55:00,34.3,22.7,0.00,WNW,293,5.4,5.4,62,0.00,,,0.31,VWS V13.01,2013-12-07 01:55:00,
2013-12-06 21:00:00,34.2,22.1,0.00,West,279,4.0,4.0,61,0.00,,,0.31,VWS V13.01,2013-12-07 02:00:00,
2013-12-06 21:05:00,34.0,22.0,0.00,SW,225,2.7,6.3,61,0.00,,,0.31,VWS V13.01,2013-12-07 02:05:00,
2013-12-06 21:10:00,33.6,21.6,0.00,ENE,77,2.7,6.7,61,0.00,,,0.31,VWS V13.01,2013-12-07 02:10:00,
2013-12-06 21:15:00,33.4,21.5,0.00,SSW,192,2.2,3.1,61,0.00,,,0.31,VWS V13.01,2013-12-07 02:15:00,
2013-12-06 21:20:00,33.3,21.7,0.00,North,353,5.8,7.6,62,0.00,,,0.31,VWS V13.01,2013-12-07 02:20:00,
2013-12-06 21:25:00,33.1,21.9,0.00,NW,315,2.7,2.7,63,0.04,,,0.35,VWS V13.01,2013-12-07 02:25:00,
2013-12-06 21:30:00,33.1,21.9,0.00,NW,306,5.8,5.8,63,0.04,,,0.35,VWS V13.01,2013-12-07 02:30:00,
2013-12-06 21:36:00,33.1,22.2,0.00,WSW,240,0.0,0.0,64,0.04,,,0.35,VWS V13.01,2013-12-07 02:36:00,
2013-12-06 21:41:00,32.9,22.1,0.00,North,353,2.7,2.7,64,0.04,,,0.35,VWS V13.01,2013-12-07 02:41:00,
2013-12-06 21:46:00,32.9,22.4,0.00,East,98,0.0,0.0,65,0.04,,,0.35,VWS V13.01,2013-12-07 02:46:00,
2013-12-06 21:51:00,32.9,22.4,0.00,NNW,344,0.0,0.0,65,0.04,,,0.35,VWS V13.01,2013-12-07 02:51:00,
2013-12-06 21:56:00,32.9,22.4,0.00,NE,49,0.0,0.0,65,0.04,,,0.35,VWS V13.01,2013-12-07 02:56:00,
2013-12-06 22:01:00,32.9,22.4,0.00,North,10,0.0,0.0,65,0.04,,,0.35,VWS V13.01,2013-12-07 03:01:00,
2013-12-06 22:06:00,33.1,22.6,0.00,ESE,106,0.0,0.0,65,0.04,,,0.35,VWS V13.01,2013-12-07 03:06:00,
2013-12-06 22:11:00,33.1,22.6,0.00,North,11,0.0,0.0,65,0.04,,,0.35,VWS V13.01,2013-12-07 03:11:00,
2013-12-06 22:16:00,33.1,22.6,0.00,East,96,0.0,0.0,65,0.04,,,0.35,VWS V13.01,2013-12-07 03:16:00,
2013-12-06 22:21:00,33.1,22.6,0.00,East,96,0.0,0.0,65,0.04,,,0.35,VWS V13.01,2013-12-07 03:21:00,
2013-12-06 22:26:00,33.1,22.6,0.00,East,96,0.0,0.0,65,0.00,,,0.35,VWS V13.01,2013-12-07 03:26:00,
2013-12-06 22:31:00,33.1,22.2,0.00,East,96,0.0,0.0,64,0.00,,,0.35,VWS V13.01,2013-12-07 03:31:00,
2013-12-06 22:36:00,33.1,22.2,0.00,East,96,0.0,0.0,64,0.00,,,0.35,VWS V13.01,2013-12-07 03:36:00,
2013-12-06 22:41:00,32.9,22.4,0.00,NW,323,0.0,0.0,65,0.00,,,0.35,VWS V13.01,2013-12-07 03:41:00,
2013-12-06 22:46:00,32.9,22.4,0.00,NNW,327,0.0,0.0,65,0.00,,,0.35,VWS V13.01,2013-12-07 03:46:00,
2013-12-06 22:51:00,32.9,22.4,0.00,ENE,74,0.0,0.0,65,0.00,,,0.35,VWS V13.01,2013-12-07 03:51:00,
2013-12-06 22:57:00,32.9,22.1,0.00,NNE,33,0.0,0.0,64,0.00,,,0.35,VWS V13.01,2013-12-07 03:57:00,
2013-12-06 23:02:00,32.9,22.1,0.00,NNE,33,0.0,0.0,64,0.00,,,0.35,VWS V13.01,2013-12-07 04:02:00,
2013-12-06 23:07:00,32.7,21.9,0.00,NNE,33,0.0,0.0,64,0.00,,,0.35,VWS V13.01,2013-12-07 04:07:00,
2013-12-06 23:12:00,32.7,21.9,0.00,NNE,33,0.0,0.0,64,0.00,,,0.35,VWS V13.01,2013-12-07 04:12:00,
2013-12-06 23:17:00,32.7,22.3,0.00,NNE,33,0.0,0.0,65,0.00,,,0.35,VWS V13.01,2013-12-07 04:17:00,
2013-12-06 23:22:00,32.5,22.1,0.00,NNE,33,0.0,0.0,65,0.00,,,0.35,VWS V13.01,2013-12-07 04:22:00,
2013-12-06 23:27:00,32.5,22.8,0.00,NNE,33,0.0,0.0,67,0.00,,,0.35,VWS V13.01,2013-12-07 04:27:00,
2013-12-06 23:32:00,32.5,23.2,0.00,NNE,33,0.0,0.0,68,0.00,,,0.00,VWS V13.01,2013-12-07 04:32:00,
2013-12-06 23:37:00,32.5,23.2,0.00,NNE,33,0.0,0.0,68,0.00,,,0.00,VWS V13.01,2013-12-07 04:37:00,
2013-12-06 23:42:00,32.5,23.2,0.00,NNE,33,0.0,0.0,68,0.00,,,0.00,VWS V13.01,2013-12-07 04:42:00,
2013-12-06 23:47:00,32.4,23.3,0.00,NNE,33,0.0,0.0,69,0.00,,,0.00,VWS V13.01,2013-12-07 04:47:00,
2013-12-06 23:52:00,32.2,23.2,0.00,NNE,33,0.0,0.0,69,0.00,,,0.00,VWS V13.01,2013-12-07 04:52:00,
2013-12-06 23:57:00,32.2,23.5,0.00,NNE,33,0.0,0.0,70,0.00,,,0.00,VWS V13.01,2013-12-07 04:57:00,